EHI
8 8 13 20 28 35 42 46 47 45 44 40 29 15 7 4 2 1 0 0 0 0 0 0 0 0 0 0 0 0 0 0 0 0 0 0 0 0 0 0 0 0 0
18 15 17 25 31 38 43 45 45 42 37 30 20 10 5 3 1 0 0 0 0 0 0 0 0 0 0 0 0 0 0 0 0 0 0 0 0 0 0 0 0 0 0
34 24 22 30 36 41 44 42 39 33 24 15 9 5 2 1 0 0 0 0 0 0 0 0 0 0 0 0 0 0 0 0 0 0 0 0 0 0 0 0 0 0 0
44 31 26 34 40 43 42 36 29 22 13 6 3 2 1 0 0 0 0 0 0 0 0 0 0 0 0 0 0 0 0 0 0 0 0 0 0 0 0 0 0 0 0
46 35 32 41 46 44 39 30 21 13 7 3 1 1 0 0 0 0 0 0 0 0 0 0 0 0 0 0 0 0 0 0 0 0 0 0 0 0 0 0 0 0 0
43 37 39 51 55 48 37 26 17 10 6 3 1 0 0 0 0 0 0 0 0 0 0 0 0 0 0 0 0 0 0 0 0 0 0 0 0 0 0 0 0 0 0
47 44 48 58 60 49 36 25 16 11 7 4 1 0 0 0 0 0 0 0 0 0 0 0 0 0 0 0 0 0 0 0 0 0 0 0 0 0 0 0 0 0 0
60 58 58 59 56 45 33 25 19 12 7 4 1 0 0 0 0 0 0 0 0 0 0 0 0 0 0 0 0 0 0 0 0 0 0 0 0 0 0 0 0 0 0
73 72 66 58 50 41 30 23 18 12 5 2 0 0 0 0 0 0 0 0 0 0 0 0 0 0 0 0 0 0 0 0 0 0 0 0 0 0 0 0 0 0 0
73 71 67 58 49 39 29 21 15 9 3 1 0 0 0 0 0 0 0 0 0 0 0 0 0 0 0 0 0 0 0 0 0 0 0 0 0 0 0 0 0 0 0
65 63 60 57 51 42 31 21 13 7 2 0 0 0 0 0 0 0 0 0 0 0 0 0 0 0 0 0 0 0 0 0 0 0 0 0 0 0 0 0 0 0 0
61 56 50 50 49 43 34 25 17 9 3 0 0 0 0 0 0 0 0 0 0 0 0 0 0 0 0 0 0 0 0 0 0 0 0 0 0 0 0 0 0 0 0
57 49 41 41 42 40 36 29 20 12 5 1 0 0 0 0 0 0 0 0 0 0 0 0 0 0 0 0 0 0 0 0 0 0 0 0 0 0 0 0 0 0 0
50 44 37 34 35 34 34 29 20 12 6 1 0 0 0 0 0 0 0 0 0 0 0 0 0 0 0 0 0 0 0 0 0 0 0 0 0 0 0 0 0 0 0
42 39 35 30 28 28 29 26 18 10 5 1 0 0 0 0 0 0 0 0 0 0 0 0 0 0 0 0 0 0 0 0 0 0 0 0 0 0 0 0 0 0 0
30 31 29 26 25 24 23 19 13 7 4 1 0 0 0 0 0 0 0 0 0 0 0 0 0 0 0 0 0 0 0 0 0 0 0 0 0 0 0 0 0 0 0
21 21 21 21 21 20 18 13 8 4 2 1 0 0 0 0 0 0 0 0 0 0 0 0 0 0 0 0 0 0 0 0 0 0 0 0 0 0 0 0 0 0 0
16 16 15 16 17 17 15 10 5 3 1 0 0 0 0 0 0 0 0 0 0 0 0 0 0 0 0 0 0 0 0 0 0 0 0 0 0 0 0 0 0 0 0
13 11 11 12 14 14 12 8 4 2 1 0 0 0 0 0 0 0 0 0 0 0 0 0 0 0 0 0 0 0 0 0 0 0 0 0 0 0 0 0 0 0 0
9 8 7 9 11 11 9 6 3 2 1 0 0 0 0 0 0 0 0 0 0 0 0 0 0 0 0 0 0 0 0 0 0 0 0 0 0 0 0 0 0 0 0
10 8 6 7 8 8 6 4 3 3 2 1 0 0 0 0 0 0 0 0 0 0 0 0 0 0 0 0 0 0 0 0 0 0 0 0 0 0 0 0 0 0 0
12 10 8 8 9 8 6 5 3 3 2 1 0 0 0 0 0 0 0 0 0 0 0 0 0 0 0 0 0 0 0 0 0 0 0 0 0 0 0 0 0 0 0
12 10 9 9 9 8 7 5 3 2 1 1 1 0 0 0 0 0 0 0 0 0 0 0 0 0 0 0 0 0 0 0 0 0 0 0 0 0 0 0 0 0 0
10 8 7 7 7 8 7 5 3 3 2 2 2 1 0 0 0 0 0 0 0 0 0 0 0 0 0 0 0 0 0 0 0 0 0 0 0 0 0 0 0 0 0
7 6 5 6 6 7 7 5 3 3 3 3 3 1 0 0 0 0 0 0 0 0 0 0 0 0 0 0 0 0 0 0 0 0 0 0 0 0 0 0 0 0 0
6 5 5 5 5 7 8 6 4 3 3 3 3 2 1 0 0 0 0 0 0 0 0 0 0 0 0 0 0 0 0 0 0 0 0 0 0 0 0 0 0 0 0
Wind_Speed
8 9 17 17 17 17 17 17 17 17 17 17 16 16 16 15 14 13 13 12 12 11 11 11 11 11 11 12 12 12 12 12 12 13 14 14 15 15 15 16 15 12 17
13 13 18 18 18 17 17 17 17 16 16 16 16 15 15 14 14 13 13 12 12 12 12 12 12 12 11 12 12 12 11 12 12 13 13 13 14 14 15 15 14 10 16
15 13 16 18 18 17 17 17 16 16 16 15 15 15 14 14 13 13 12 12 11 12 12 12 12 12 11 11 11 11 11 11 12 12 12 8 10 14 14 14 14 15 15
16 11 13 19 18 18 17 17 16 15 15 15 14 14 13 13 12 12 12 11 11 11 11 11 11 11 11 11 11 10 10 11 11 11 7 7 8 13 13 14 14 14 14
13 11 14 20 18 18 17 16 16 15 15 14 13 13 13 12 12 11 11 11 11 11 11 11 11 10 10 9 9 9 9 10 11 9 6 6 6 12 13 13 13 13 13
12 11 14 20 19 18 17 16 16 15 15 14 13 12 12 11 11 11 11 10 10 10 10 10 10 9 9 8 8 8 8 10 9 6 6 6 6 11 13 13 13 13 13
12 9 12 20 19 18 17 16 16 15 15 14 13 12 11 10 10 10 10 10 9 9 9 9 8 8 7 7 7 7 7 10 7 6 6 6 6 11 12 13 12 12 12
13 10 11 19 19 18 17 16 16 15 14 14 13 12 11 10 10 9 9 9 8 8 8 8 7 7 6 5 5 5 6 9 7 7 6 5 8 10 12 12 12 12 12
11 10 9 10 13 17 17 16 15 14 14 13 12 11 10 10 9 9 8 8 7 7 7 6 6 5 5 4 4 4 6 9 6 4 6 4 8 10 11 12 11 11 11
8 9 8 8 8 8 10 15 15 14 13 12 12 11 10 9 9 8 7 6 6 6 5 5 5 4 4 4 3 4 6 8 5 4 3 4 9 11 11 11 11 11 10
10 7 7 8 7 7 7 11 12 13 12 11 9 11 8 4 3 4 5 5 5 5 4 3 4 4 4 3 3 5 5 3 4 3 3 6 9 10 11 11 10 10 10
14 10 7 8 8 7 7 6 4 5 5 4 3 4 4 3 2 3 2 5 4 4 3 3 3 4 3 2 2 4 2 3 3 3 3 7 8 9 9 10 10 10 9
13 12 9 8 8 7 4 5 3 3 3 3 4 4 4 3 2 2 2 1 2 3 2 3 3 2 2 1 1 1 2 2 2 2 3 7 7 8 8 9 9 9 9
12 12 9 9 8 6 5 5 4 3 3 3 3 4 4 2 2 2 1 1 2 1 2 2 1 2 2 2 1 2 2 2 1 1 1 6 6 7 7 8 8 9 8
11 11 11 10 9 6 5 5 5 4 4 3 3 3 4 3 3 2 2 1 1 1 1 1 1 2 2 2 1 2 2 2 2 1 0 3 5 6 6 7 8 8 9
11 11 10 11 9 7 5 4 4 4 4 3 3 4 4 3 3 3 2 2 1 1 1 1 2 2 2 2 2 1 1 1 1 1 1 0 2 4 5 5 6 8 8
10 9 10 9 9 8 7 6 4 4 4 3 3 4 4 4 4 4 3 2 1 2 2 2 3 2 2 2 2 2 1 1 1 1 1 1 1 1 2 4 5 6 7
9 10 11 10 9 8 6 5 4 4 4 3 3 3 4 5 5 4 3 2 2 2 2 2 2 3 2 2 2 2 2 2 2 1 1 0 0 1 1 2 4 5 6
10 10 10 9 10 9 7 5 5 4 4 3 3 3 4 5 5 4 3 2 3 2 2 2 2 2 2 2 2 3 3 2 2 1 1 0 0 0 0 1 1 3 5
9 8 9 9 8 8 6 4 3 4 3 3 3 4 5 4 5 5 3 3 3 3 2 2 3 3 2 2 3 4 3 3 2 2 2 1 1 0 0 0 0 1 2
9 9 9 9 8 7 6 5 4 4 3 3 3 5 5 5 6 5 4 4 3 3 2 3 2 3 3 2 3 3 3 4 4 3 2 2 2 2 1 1 1 0 0
9 9 9 10 9 9 6 5 3 4 3 3 3 4 5 5 5 5 5 4 3 3 3 2 2 2 2 2 2 3 2 3 3 4 3 3 3 2 2 2 1 1 1
9 9 9 9 9 8 7 5 5 4 3 3 3 2 3 5 5 5 5 4 4 3 3 2 2 3 3 2 2 3 3 2 1 3 3 3 3 2 2 2 1 1 1
9 8 8 8 8 8 9 8 9 6 5 4 4 3 3 4 4 5 5 5 4 3 3 2 2 2 3 2 1 2 2 3 3 1 2 2 3 2 3 2 2 1 1
8 8 8 8 8 8 8 9 8 6 4 4 4 5 3 3 3 5 5 5 4 3 3 3 3 2 2 3 2 2 2 2 2 2 0 2 2 2 2 2 1 1 1
7 7 8 9 8 8 9 8 8 8 7 7 5 5 4 2 2 4 5 4 4 4 4 4 3 3 3 3 2 2 3 2 2 2 2 1 1 2 2 1 1 1 1
Wind_Direction
157 159 154 145 137 131 126 124 122 120 120 120 121 122 123 124 123 123 122 118 116 113 109 107 105 103 103 104 104 105 106 109 110 112 113 113 112 112 111 110 108 108 110
148 155 154 148 141 135 131 128 126 124 123 123 124 124 124 124 124 122 121 119 117 114 110 107 106 106 105 106 107 107 109 111 113 114 115 117 117 116 114 113 112 115 115
145 152 153 149 144 140 136 132 130 129 128 126 126 126 126 125 124 122 120 117 115 112 110 108 107 106 106 107 108 109 111 114 115 113 110 111 118 119 119 118 118 117 117
145 148 151 151 147 144 140 137 134 132 131 130 129 130 129 127 126 125 121 118 116 114 112 110 108 107 107 108 110 113 116 118 119 115 104 113 122 126 124 122 120 121 121
145 147 156 153 150 147 144 141 139 137 136 135 134 134 132 130 128 125 122 120 117 115 114 112 110 108 108 109 111 116 124 126 123 114 106 106 115 131 128 127 124 123 123
146 149 159 155 153 150 148 146 144 142 141 139 137 135 134 132 129 125 123 120 117 116 114 112 111 109 108 108 110 116 130 135 121 116 115 116 123 136 133 131 128 127 126
147 152 160 157 155 154 152 151 148 147 144 143 141 140 137 134 132 128 125 122 118 116 114 113 110 106 104 103 105 112 126 135 124 125 126 127 135 140 137 133 131 131 129
150 152 157 159 157 157 156 154 152 151 148 147 147 145 141 138 135 132 127 124 122 118 115 113 109 102 96 95 99 106 125 134 131 133 132 135 145 143 140 137 137 136 134
150 151 153 157 159 160 159 157 156 154 152 151 150 148 146 144 141 138 134 130 127 124 120 115 107 97 86 81 93 116 126 130 128 133 142 141 151 149 145 143 143 140 140
150 152 149 148 150 153 158 161 160 158 157 156 155 153 153 151 148 144 139 141 136 131 126 116 102 90 76 72 85 124 133 124 132 134 130 152 157 155 151 148 148 146 145
159 156 150 147 143 142 150 166 162 161 162 161 159 159 150 123 120 132 145 151 147 140 129 115 100 89 74 61 82 114 120 122 135 135 140 162 163 162 158 155 154 153 152
168 166 157 151 147 147 160 152 143 146 149 141 133 134 116 112 122 129 153 155 146 133 118 100 86 72 69 44 71 98 106 135 136 149 165 171 170 168 165 162 160 159 159
167 167 163 156 151 152 148 141 132 125 127 129 132 127 121 112 100 91 77 74 63 80 56 51 50 49 60 67 79 108 124 130 141 159 180 183 178 176 171 170 168 167 166
167 170 163 160 154 153 145 144 139 138 140 142 142 136 129 123 115 106 93 78 64 62 70 51 41 36 50 58 104 131 134 129 140 135 209 194 185 186 182 180 179 178 175
173 174 168 164 160 156 146 152 152 151 152 150 145 145 142 139 137 123 107 97 90 83 82 62 49 50 49 46 81 131 141 137 137 128 347 204 188 191 196 193 190 190 187
180 178 170 168 165 158 155 154 153 153 149 146 149 152 147 142 140 134 121 112 101 98 90 87 80 78 60 54 65 94 126 115 118 121 96 296 205 196 201 202 202 201 199
181 174 173 173 165 161 160 162 156 154 148 152 153 151 148 145 144 137 129 125 115 102 94 79 68 65 66 60 56 49 63 76 94 102 80 39 5 259 208 203 207 214 211
176 177 178 178 169 165 164 163 154 154 150 151 150 146 146 146 140 132 132 131 126 109 97 93 73 67 58 67 63 36 35 40 51 61 70 61 38 355 258 213 209 218 217
179 178 179 174 170 167 164 156 151 146 144 145 144 142 146 144 141 133 132 125 119 104 91 98 70 78 75 68 76 55 34 38 34 25 20 18 90 114 90 311 240 226 224
173 174 177 171 168 161 150 132 125 126 132 137 145 147 143 140 139 131 124 122 118 106 89 82 85 67 68 65 72 57 35 31 40 35 11 17 35 56 117 130 356 283 257
169 175 177 172 165 156 150 150 150 152 145 141 149 145 143 141 140 133 128 122 121 118 118 116 100 82 59 48 75 44 23 33 45 34 24 35 37 32 63 87 123 124 347
174 175 177 174 168 164 162 154 143 130 129 130 129 131 142 142 143 144 140 138 135 119 109 108 111 104 67 48 107 93 41 10 9 22 22 34 31 34 45 55 83 109 91
180 179 178 171 165 160 148 128 114 95 91 103 118 136 148 148 149 144 147 140 141 134 137 133 130 127 119 58 63 129 135 188 326 351 15 23 18 29 25 28 61 73 112
183 174 168 164 165 157 150 152 153 155 157 167 157 153 143 148 151 150 149 145 145 141 142 148 135 132 132 127 75 58 99 142 138 40 346 359 8 24 14 19 26 30 53
175 171 168 163 166 160 161 162 160 154 144 132 131 140 143 146 155 156 153 149 150 150 150 145 136 134 133 142 144 128 99 73 89 133 181 333 352 357 357 358 350 355 12
164 167 165 167 171 165 164 164 166 159 149 145 150 156 156 149 157 165 159 157 158 158 161 159 152 145 136 132 138 144 150 148 156 144 156 222 306 319 332 335 325 321 325